Torna al catalogo

SCOUT X-1 DEB

AttivoLEO
NORAD 4026·DEBRIS·🇺🇸 United States

Lanciato Feb 16, 1961 da Wallops Flight Facility

Loading…

Prossimi Passaggi (prossime 24 ore)

TLE

AggiornatoSource: Space-Track

Epoca: Sep 14, 2026, 09:15 UTC

1 04026U 61004G   26257.38550117  .00003591  00000-0  67243-3 0  9998
2 04026  38.8208  29.0953 0369049  36.8172 325.7330 14.29871366146572

Traccia SCOUT X-1 DEB in tempo reale con AllMySat

Download on the App Store